STARLINK-3264 (50198 NORAD) Tracking and Keplerian Element Data

This shows tracking and keplerian element data for the satellite.

Feedback or suggestion? Click here.




ElementValue
Catalog50198
NameSTARLINK-3264
Epoch Orbit2660
Epoch Day140.91667824
Epoch Year2022
RAAN353.5618
Inclination53.2205
Eccentricity0.0001826
Argument of Perigee47.9263
Mean Anonmoly105.1692
Mean Motion15.08847347
Decay Rate-0.00034541
L11 50198U 21125AU 22140.91667824 -.00034541 00000+0 -21621-2 0 9998
L22 50198 53.2205 353.5618 0001826 47.9263 105.1692 15.08847347 26606

Live tracking and technical data element details for STARLINK-3264 (NORAD 50198). STARLINK-3264 can be tracked NOW for your location showing map with azimuth and elevation plus other details from your city location.

Track the satellite on the map from your city or location and see movement details for azimuth, elevation, latitude, longitude, range, height, and movement on the map or in text.







IsCatalogInMostPopularTable: catalog: 50198, numindb: 28
Update: records affected: 1



GetName: 50198 STARLINK-3264

Hit Count: updated at: Sun, 22 May 2022 05:19:50 GMT